GW7354 Weather Reports


Display with metric or nautical units.
time (UTC)temp
F
wind
direction
speed
MPH
gust
MPH
rain 1hr
in
rain 24hr
in
rain mn
in
humidity
%
barometer
mb
20260505152307 76 118 3.0 5.0 0.00 0.00 0.00 50 1008.2
20260505151802 75 315 2.0 2.0 0.00 0.00 0.00 52 1008.0
20260505151259 74 188 3.0 3.0 0.00 0.00 0.00 50 1008.0
20260505150756 74 323 3.0 3.0 0.00 0.00 0.00 50 1008.2
20260505150253 74 351 2.0 2.0 0.00 0.00 0.00 52 1008.1
20260505140223 72 50 2.0 3.0 0.00 0.00 0.00 53 1008.7
20260505130147 67 32 1.0 1.0 0.00 0.00 0.00 61 1008.5
20260505124637 67 215 6.0 7.0 0.00 0.00 0.00 62 1008.6
20260505124133 66 189 4.0 5.0 0.00 0.00 0.00 63 1008.7
20260505123629 66 220 4.0 5.0 0.00 0.00 0.00 63 1008.5
20260505123126 66 212 3.0 3.0 0.00 0.00 0.00 63 1008.4
20260505122623 66 124 2.0 2.0 0.00 0.00 0.00 64 1008.4
20260505122120 65 211 5.0 6.0 0.00 0.00 0.00 64 1008.4
20260505121616 64 296 2.0 2.0 0.00 0.00 0.00 66 1008.5
20260505121113 64 217 4.0 5.0 0.00 0.00 0.00 64 1008.4
20260505120609 64 221 3.0 3.0 0.00 0.00 0.00 66 1008.6
20260505120106 64 226 2.0 2.0 0.00 0.00 0.00 66 1008.5
20260505115600 63 220 3.0 3.0 0.00 0.00 0.00 67 1008.5
20260505115057 63 208 3.0 5.0 0.00 0.00 0.00 68 1008.6
20260505114555 62 214 3.0 3.0 0.00 0.00 0.00 68 1008.6
20260505114051 62 224 3.0 3.0 0.00 0.00 0.00 69 1008.4
20260505113547 62 210 2.0 2.0 0.00 0.00 0.00 71 1008.5
20260505113044 61 211 3.0 3.0 0.00 0.00 0.00 70 1008.6
20260505112540 61 341 2.0 2.0 0.00 0.00 0.00 71 1008.5
20260505112038 60 220 5.0 6.0 0.00 0.00 0.00 72 1008.4
20260505111532 60 92 1.0 2.0 0.00 0.00 0.00 73 1008.3
20260505111028 59 107 2.0 2.0 0.00 0.00 0.00 76 1008.4
20260505110525 59 71 0.0 0.0 0.00 0.00 0.00 76 1008.7
20260505101957 57 64 0.0 0.0 0.00 0.00 0.00 79 1008.4
20260505101455 56 67 1.0 1.0 0.00 0.00 0.00 80 1008.4
20260505100952 56 51 1.0 1.0 0.00 0.00 0.00 81 1008.2
20260505100449 56 53 0.0 1.0 0.00 0.00 0.00 81 1008.4
20260505095945 56 65 0.0 0.0 0.00 0.00 0.00 81 1008.0
20260505095441 56 50 0.0 0.0 0.00 0.00 0.00 81 1008.3
20260505094938 56 79 1.0 1.0 0.00 0.00 0.00 80 1008.3
20260505094435 56 51 0.0 0.0 0.00 0.00 0.00 81 1008.0
20260505093931 56 39 1.0 1.0 0.00 0.00 0.00 80 1008.0
20260505093428 56 34 1.0 1.0 0.00 0.00 0.00 79 1007.8
20260505092925 57 55 1.0 1.0 0.00 0.00 0.00 78 1007.4
20260505092423 57 63 0.0 0.0 0.00 0.00 0.00 77 1007.4
20260505091920 58 58 0.0 1.0 0.00 0.00 0.00 77 1007.5
20260505091417 58 58 0.0 0.0 0.00 0.00 0.00 76 1007.3
20260505090916 58 60 0.0 0.0 0.00 0.00 0.00 75 1007.2
20260505090414 58 77 1.0 1.0 0.00 0.00 0.00 75 1007.4
20260505085911 58 210 2.0 2.0 0.00 0.00 0.00 75 1007.5
20260505085409 58 199 3.0 3.0 0.00 0.00 0.00 75 1007.6
20260505084906 58 219 2.0 2.0 0.00 0.00 0.00 75 1007.7
20260505084404 58 90 1.0 2.0 0.00 0.00 0.00 75 1007.5
20260505083902 57 63 0.0 1.0 0.00 0.00 0.00 76 1007.5
20260505083359 56 206 3.0 3.0 0.00 0.00 0.00 77 1007.6
20260505082855 56 152 2.0 2.0 0.00 0.00 0.00 78 1007.6
20260505082351 56 116 2.0 2.0 0.00 0.00 0.00 79 1007.4
20260505081848 56 42 1.0 1.0 0.00 0.00 0.00 79 1007.6
20260505081345 56 55 1.0 1.0 0.00 0.00 0.00 77 1007.5
20260505080841 56 112 1.0 2.0 0.00 0.00 0.00 77 1007.6
20260505080337 56 43 1.0 1.0 0.00 0.00 0.00 78 1007.4
20260505075833 57 66 1.0 1.0 0.00 0.00 0.00 77 1007.4
20260505075330 57 57 1.0 1.0 0.00 0.00 0.00 76 1007.5
20260505074827 57 68 1.0 1.0 0.00 0.00 0.00 76 1007.6
20260505074325 57 62 1.0 1.0 0.00 0.00 0.00 76 1007.3
20260505073822 57 106 1.0 2.0 0.00 0.00 0.00 76 1007.7
20260505073320 57 106 2.0 2.0 0.00 0.00 0.00 76 1007.7
20260505072816 57 75 1.0 1.0 0.00 0.00 0.00 75 1007.5
20260505072313 58 202 3.0 3.0 0.00 0.00 0.00 75 1007.6
20260505071809 57 57 0.0 0.0 0.00 0.00 0.00 75 1007.4
20260505071306 57 134 2.0 2.0 0.00 0.00 0.00 76 1007.3
20260505070804 57 66 0.0 0.0 0.00 0.00 0.00 78 1007.4
20260505070300 57 61 0.0 0.0 0.00 0.00 0.00 76 1007.5
20260505065754 57 37 0.0 0.0 0.00 0.00 0.00 75 1007.4
20260505065252 58 37 0.0 1.0 0.00 0.00 0.00 73 1007.4
20260505064749 59 65 1.0 1.0 0.00 0.00 0.00 73 1007.4
20260505064246 59 214 4.0 5.0 0.00 0.00 0.00 72 1007.2
20260505063744 59 211 3.0 5.0 0.00 0.00 0.00 72 1007.2
20260505063240 59 215 3.0 5.0 0.00 0.00 0.00 71 1007.5
20260505062736 59 211 3.0 3.0 0.00 0.00 0.00 71 1007.3
20260505062234 59 207 3.0 3.0 0.00 0.00 0.00 71 1007.5
20260505061731 59 215 3.0 5.0 0.00 0.00 0.00 71 1007.3
20260505061229 59 320 2.0 2.0 0.00 0.00 0.00 71 1007.3
20260505060726 58 216 3.0 3.0 0.00 0.00 0.00 72 1007.5
20260505060223 58 141 2.0 2.0 0.00 0.00 0.00 73 1007.4
20260505055718 58 138 2.0 2.0 0.00 0.00 0.00 73 1007.5
20260505055215 58 206 3.0 3.0 0.00 0.00 0.00 72 1007.5
20260505054712 59 197 3.0 3.0 0.00 0.00 0.00 72 1007.5
20260505054210 59 85 1.0 1.0 0.00 0.00 0.00 71 1007.4
20260505053708 59 235 2.0 2.0 0.00 0.00 0.00 72 1007.8
20260505053204 59 250 4.0 5.0 0.00 0.00 0.00 71 1007.7
20260505052701 59 226 4.0 5.0 0.00 0.00 0.00 71 1007.6
20260505052158 59 220 3.0 5.0 0.00 0.00 0.00 71 1007.7
20260505051655 59 230 2.0 3.0 0.00 0.00 0.00 71 1007.7
20260505051153 59 215 3.0 5.0 0.00 0.00 0.00 70 1007.6
20260505050651 59 233 3.0 3.0 0.00 0.00 0.00 70 1007.8
20260505050149 59 189 3.0 3.0 0.00 0.00 0.00 70 1007.7
20260505041619 59 220 4.0 5.0 0.00 0.00 0.00 67 1007.8
20260505041116 59 220 4.0 5.0 0.00 0.00 0.00 67 1007.8
20260505040613 59 211 3.0 3.0 0.00 0.00 0.00 66 1008.0
20260505040110 59 221 2.0 2.0 0.00 0.00 0.00 66 1008.0
20260505035606 59 175 3.0 3.0 0.00 0.00 0.00 65 1008.0
20260505035103 59 206 3.0 3.0 0.00 0.00 0.00 65 1007.9
20260505034559 59 217 3.0 3.0 0.00 0.00 0.00 65 1007.9
20260505034056 59 98 2.0 3.0 0.00 0.00 0.00 64 1007.8
20260505033553 59 184 3.0 3.0 0.00 0.00 0.00 65 1008.1
20260505033052 60 217 3.0 3.0 0.00 0.00 0.00 63 1007.9
20260505032549 59 218 4.0 5.0 0.00 0.00 0.00 63 1008.1
20260505032045 60 89 1.0 2.0 0.00 0.00 0.00 62 1007.9
20260505031543 60 76 0.0 1.0 0.00 0.00 0.00 62 1008.0
20260505031039 60 106 2.0 2.0 0.00 0.00 0.00 60 1008.1
20260505030536 60 79 1.0 1.0 0.00 0.00 0.00 61 1008.2
20260505030032 60 99 2.0 2.0 0.00 0.00 0.00 60 1008.1
20260505025528 60 80 1.0 1.0 0.00 0.00 0.00 61 1007.8
20260505025027 60 81 1.0 2.0 0.00 0.00 0.00 59 1008.1
20260505024524 61 13 1.0 1.0 0.00 0.00 0.00 57 1008.2
20260505024021 61 342 1.0 2.0 0.00 0.00 0.00 57 1008.2
20260505023518 61 348 2.0 2.0 0.00 0.00 0.00 55 1008.2
20260505023015 62 72 0.0 0.0 0.00 0.00 0.00 54 1008.2
20260505022513 61 105 1.0 2.0 0.00 0.00 0.00 54 1008.1
20260505022010 61 104 1.0 2.0 0.00 0.00 0.00 56 1008.3
20260505021506 62 101 1.0 2.0 0.00 0.00 0.00 52 1008.3
20260505021003 61 107 1.0 2.0 0.00 0.00 0.00 52 1008.2
20260505020457 60 76 1.0 1.0 0.00 0.00 0.00 56 1008.2
20260505015954 60 92 1.0 1.0 0.00 0.00 0.00 58 1008.3
20260505015452 59 79 1.0 1.0 0.00 0.00 0.00 54 1008.2
20260505014949 59 91 1.0 1.0 0.00 0.00 0.00 58 1008.2
20260505014445 59 91 0.0 1.0 0.00 0.00 0.00 59 1008.0
20260505013943 59 91 1.0 1.0 0.00 0.00 0.00 59 1008.0
20260505013440 60 89 1.0 1.0 0.00 0.00 0.00 55 1008.0
20260505012937 60 89 1.0 1.0 0.00 0.00 0.00 56 1008.0
20260505012435 61 107 2.0 2.0 0.00 0.00 0.00 55 1007.9
20260505011931 62 88 1.0 1.0 0.00 0.00 0.00 54 1007.8
20260505011427 62 98 1.0 1.0 0.00 0.00 0.00 50 1007.9
20260505010925 61 106 2.0 2.0 0.00 0.00 0.00 54 1007.9
20260505010420 61 89 1.0 1.0 0.00 0.00 0.00 53 1007.6
20260505005916 62 88 1.0 1.0 0.00 0.00 0.00 53 1007.5
20260505005413 63 82 1.0 1.0 0.00 0.00 0.00 50 1007.6
20260505004911 64 117 1.0 2.0 0.00 0.00 0.00 47 1007.5
20260505004407 64 108 1.0 2.0 0.00 0.00 0.00 47 1007.5
20260505003904 64 105 1.0 1.0 0.00 0.00 0.00 46 1007.4
20260505003401 65 104 1.0 1.0 0.00 0.00 0.00 45 1007.4
20260505002857 65 131 2.0 2.0 0.00 0.00 0.00 45 1007.5
20260505002354 65 206 2.0 2.0 0.00 0.00 0.00 45 1007.5
20260505001853 65 217 1.0 2.0 0.00 0.00 0.00 45 1007.3
20260505001349 65 85 1.0 1.0 0.00 0.00 0.00 46 1007.2
20260505000847 66 87 1.0 1.0 0.00 0.00 0.00 45 1007.0
20260505000344 66 106 1.0 2.0 0.00 0.00 0.00 43 1006.9
20260504235841 66 143 2.0 2.0 0.00 0.00 0.00 43 1007.0
20260504235338 66 183 2.0 2.0 0.00 0.00 0.00 42 1007.0
20260504234834 67 83 1.0 1.0 0.00 0.00 0.00 42 1006.8
20260504234332 68 119 1.0 1.0 0.00 0.00 0.00 42 1006.6
20260504233828 68 231 2.0 2.0 0.00 0.00 0.00 41 1006.6
20260504233324 68 305 1.0 2.0 0.00 0.00 0.00 40 1006.8
20260504232821 68 235 2.0 2.0 0.00 0.00 0.00 40 1006.5
20260504232318 68 104 2.0 2.0 0.00 0.00 0.00 41 1006.5
20260504231815 68 178 4.0 5.0 0.00 0.00 0.00 40 1006.5
20260504231312 69 159 3.0 3.0 0.00 0.00 0.00 39 1006.4
20260504230808 69 224 5.0 6.0 0.00 0.00 0.00 38 1006.4
20260504230306 69 214 3.0 5.0 0.00 0.00 0.00 39 1006.5
20260504225804 69 17 1.0 1.0 0.00 0.00 0.00 38 1006.3
20260504225300 69 108 2.0 2.0 0.00 0.00 0.00 39 1006.4
20260504224757 69 215 3.0 3.0 0.00 0.00 0.00 39 1006.4
20260504224255 69 237 2.0 3.0 0.00 0.00 0.00 38 1006.3
20260504223751 69 242 3.0 5.0 0.00 0.00 0.00 38 1006.5
20260504223247 69 211 3.0 3.0 0.00 0.00 0.00 38 1006.1
20260504222744 69 18 1.0 1.0 0.00 0.00 0.00 41 1006.4
20260504222241 69 222 3.0 7.0 0.00 0.00 0.00 38 1006.5
20260504221738 70 39 1.0 2.0 0.00 0.00 0.00 37 1006.4
20260504221235 70 92 1.0 1.0 0.00 0.00 0.00 38 1006.4
20260504220732 70 200 6.0 7.0 0.00 0.00 0.00 37 1006.6
20260504220229 70 9 1.0 2.0 0.00 0.00 0.00 38 1006.7
20260504215726 70 233 6.0 8.0 0.00 0.00 0.00 37 1006.3
20260504215223 70 301 2.0 2.0 0.00 0.00 0.00 37 1006.6
20260504214718 70 232 5.0 8.0 0.00 0.00 0.00 37 1006.8
20260504214215 70 214 3.0 3.0 0.00 0.00 0.00 38 1006.8
20260504213712 70 215 3.0 3.0 0.00 0.00 0.00 38 1006.8
20260504213208 70 232 2.0 2.0 0.00 0.00 0.00 39 1006.8
20260504212706 70 182 1.0 2.0 0.00 0.00 0.00 36 1006.8
20260504212202 70 208 4.0 6.0 0.00 0.00 0.00 37 1006.8
20260504211659 70 287 4.0 6.0 0.00 0.00 0.00 37 1006.6
20260504211155 70 218 3.0 5.0 0.00 0.00 0.00 38 1006.9
20260504210653 70 341 2.0 3.0 0.00 0.00 0.00 37 1006.8
20260504210150 70 214 3.0 5.0 0.00 0.00 0.00 39 1006.9
20260504205647 71 339 2.0 2.0 0.00 0.00 0.00 37 1006.7
20260504205144 71 218 5.0 6.0 0.00 0.00 0.00 37 1006.8
20260504204643 70 12 1.0 1.0 0.00 0.00 0.00 38 1006.7
20260504204141 70 202 6.0 6.0 0.00 0.00 0.00 36 1006.8
20260504203640 71 193 6.0 9.0 0.00 0.00 0.00 36 1006.9
20260504203137 70 8 1.0 1.0 0.00 0.00 0.00 35 1006.9
20260504202637 70 188 5.0 7.0 0.00 0.00 0.00 36 1006.7
20260504202134 71 337 2.0 2.0 0.00 0.00 0.00 38 1006.8
20260504201631 71 199 8.0 9.0 0.00 0.00 0.00 36 1006.9
20260504201129 71 12 1.0 2.0 0.00 0.00 0.00 34 1006.9
20260504200626 71 19 1.0 1.0 0.00 0.00 0.00 35 1006.8
20260504200122 71 221 3.0 5.0 0.00 0.00 0.00 35 1007.0
20260504195618 71 139 2.0 3.0 0.00 0.00 0.00 36 1007.1
20260504195115 70 220 3.0 3.0 0.00 0.00 0.00 37 1007.1
20260504194612 70 220 7.0 9.0 0.00 0.00 0.00 35 1007.0
20260504194107 71 215 5.0 6.0 0.00 0.00 0.00 35 1007.2
20260504193604 70 205 5.0 7.0 0.00 0.00 0.00 38 1007.1
20260504193102 71 202 6.0 7.0 0.00 0.00 0.00 35 1007.3
20260504192600 71 287 3.0 5.0 0.00 0.00 0.00 39 1007.1
20260504192058 71 359 3.0 3.0 0.00 0.00 0.00 36 1007.0
20260504191556 71 354 3.0 3.0 0.00 0.00 0.00 37 1007.2
20260504191052 70 351 1.0 1.0 0.00 0.00 0.00 39 1007.3
20260504190548 70 348 1.0 2.0 0.00 0.00 0.00 39 1007.5
20260504190044 69 173 3.0 5.0 0.00 0.00 0.00 37 1007.8
20260504185542 70 293 6.0 7.0 0.00 0.00 0.00 37 1007.5
20260504185038 70 247 5.0 7.0 0.00 0.00 0.00 36 1007.6
20260504184533 69 220 6.0 6.0 0.00 0.00 0.00 36 1007.7
20260504184029 69 223 8.0 10.0 0.00 0.00 0.00 36 1007.8
20260504183526 70 357 2.0 2.0 0.00 0.00 0.00 39 1007.8
20260504183025 69 204 5.0 6.0 0.00 0.00 0.00 38 1007.9
20260504182521 70 213 6.0 9.0 0.00 0.00 0.00 36 1008.0
20260504182018 69 72 1.0 1.0 0.00 0.00 0.00 38 1007.8
20260504181515 69 56 2.0 2.0 0.00 0.00 0.00 36 1008.0
20260504181014 69 3 3.0 3.0 0.00 0.00 0.00 36 1008.3
20260504180512 69 228 3.0 6.0 0.00 0.00 0.00 38 1008.2
20260504180011 69 347 3.0 5.0 0.00 0.00 0.00 37 1008.3
20260504175508 68 333 2.0 2.0 0.00 0.00 0.00 38 1008.3
20260504175005 69 217 3.0 3.0 0.00 0.00 0.00 38 1008.3
20260504174502 69 205 6.0 8.0 0.00 0.00 0.00 37 1008.5
20260504173959 68 31 1.0 1.0 0.00 0.00 0.00 39 1008.5
20260504173456 68 183 2.0 3.0 0.00 0.00 0.00 38 1008.6
20260504172953 67 217 3.0 5.0 0.00 0.00 0.00 40 1008.7
20260504172449 68 208 5.0 6.0 0.00 0.00 0.00 40 1008.8
20260504171946 68 141 2.0 2.0 0.00 0.00 0.00 39 1008.6
20260504171443 67 4 2.0 2.0 0.00 0.00 0.00 38 1008.9
20260504170939 67 232 4.0 6.0 0.00 0.00 0.00 38 1009.0
20260504170436 67 216 4.0 7.0 0.00 0.00 0.00 40 1008.9
20260504160355 66 222 4.0 5.0 0.00 0.00 0.00 41 1009.7